Temperature
12 12 13 13 13 13 13 13 14 14 14 14 14 14 14 14 14 14 15 15 15 15 15 15 15 15 15 15 15 15 15 15 15 15 15 15 15 15 14 14 14 14 14
11 12 12 12 13 13 13 13 13 14 14 14 14 14 14 14 14 14 14 14 14 14 15 15 15 15 15 15 15 15 15 15 14 14 14 14 14 14 14 14 14 14 14
11 12 12 12 12 13 13 13 13 14 14 14 14 14 14 14 14 14 14 14 14 14 14 14 15 14 14 14 15 14 14 14 14 14 14 14 14 14 14 14 14 14 14
11 11 12 12 12 13 13 13 13 13 13 14 14 14 14 14 14 14 14 14 14 14 14 14 14 14 14 14 14 14 14 14 14 14 13 13 13 14 14 14 14 14 14
11 11 12 12 12 12 12 12 13 13 13 13 13 13 13 13 14 13 13 13 14 14 14 14 14 14 14 14 14 14 14 14 14 13 13 13 13 13 13 14 14 14 14
11 11 11 12 12 12 12 12 12 13 13 13 13 13 13 13 13 13 13 13 13 13 13 14 13 14 14 14 14 14 14 14 13 13 13 13 13 13 13 13 13 13 13
10 11 11 11 12 12 12 12 12 12 12 13 13 13 13 13 13 13 13 13 13 13 13 13 13 13 13 13 14 14 14 14 13 13 13 13 13 13 13 13 13 13 13
10 10 11 11 11 12 12 12 12 12 12 12 12 12 13 13 13 13 13 13 13 13 13 13 13 13 13 13 13 13 13 13 13 12 13 13 13 13 13 13 13 13 13
10 10 10 11 11 11 11 11 11 12 12 12 12 12 12 12 12 12 12 12 12 12 13 12 12 12 13 13 13 13 13 13 12 12 12 12 13 13 13 13 13 13 13
9 9 10 10 10 11 11 11 11 11 11 12 12 12 12 12 12 12 12 12 12 12 12 12 12 12 12 12 13 13 13 12 12 12 12 12 13 13 13 13 13 13 13
9 9 9 10 10 10 10 11 11 11 11 11 11 11 11 11 11 11 11 11 12 12 12 12 12 12 12 12 12 12 12 12 12 12 12 12 12 12 12 13 13 13 13
8 9 9 9 9 10 10 10 10 10 10 11 11 11 11 11 11 11 11 11 11 11 11 11 11 11 11 11 12 12 11 12 12 12 12 12 12 12 12 12 12 13 13
8 8 8 9 9 9 9 10 10 10 10 10 10 10 10 10 10 10 10 10 10 10 10 11 11 11 11 11 11 11 11 11 11 11 11 12 12 12 12 12 12 12 12
7 8 8 8 8 9 9 9 9 9 9 10 10 10 10 10 10 10 10 10 10 10 10 10 10 10 10 10 10 10 11 11 11 11 11 11 12 12 12 12 12 12 12
7 7 7 7 8 8 8 8 9 9 9 9 9 9 9 9 9 9 9 9 9 9 9 9 9 9 9 10 10 10 10 10 10 10 11 11 11 11 11 11 11 12 12
6 7 7 7 7 7 8 8 8 8 8 8 9 9 9 9 9 9 9 9 9 9 9 9 9 9 9 9 9 9 10 10 10 10 10 11 11 11 11 11 11 11 12
6 6 6 6 6 7 7 7 7 8 8 8 8 8 8 8 8 8 8 8 9 9 9 9 9 9 9 9 9 9 9 9 10 10 10 10 10 11 11 11 11 11 11
5 5 6 6 6 6 6 7 7 7 7 7 7 8 8 8 8 8 8 8 8 8 8 8 8 8 8 8 8 8 9 9 9 9 10 10 10 10 10 11 11 11 11
4 5 5 5 6 6 6 6 6 6 7 7 7 7 7 7 7 7 7 7 7 8 8 8 8 8 8 8 8 8 8 8 9 9 9 9 10 10 10 10 10 11 11
4 4 4 5 5 5 5 5 6 6 6 6 6 6 6 7 7 7 7 7 7 7 7 7 7 7 7 7 7 8 8 8 8 9 9 9 9 9 10 10 10 10 10
4 4 4 4 4 4 5 5 5 5 5 6 6 6 6 6 6 6 6 6 6 6 7 6 6 6 7 7 7 7 7 8 8 8 8 9 9 9 9 9 9 10 10
3 3 4 4 4 4 4 4 4 5 5 5 5 5 5 5 5 6 6 6 6 6 6 6 6 6 6 6 6 6 6 7 7 8 8 8 8 9 9 9 9 9 10
3 3 3 3 3 3 3 4 4 4 4 4 4 4 5 5 5 5 5 5 5 6 6 6 6 6 5 5 6 5 6 7 6 7 7 8 8 8 8 8 8 9 9
2 3 3 3 3 3 3 3 3 3 3 4 4 4 4 4 4 4 4 5 5 5 5 5 5 5 5 5 5 5 5 6 6 6 7 7 7 7 8 8 8 8 9
2 2 2 2 2 2 2 3 3 3 3 3 3 3 3 3 3 4 4 4 4 4 4 4 5 5 5 5 5 4 5 5 5 5 6 6 6 7 7 8 8 8 8
1 2 2 2 2 2 2 2 2 2 2 2 2 2 3 3 3 3 3 3 3 3 4 4 4 4 4 4 4 4 4 4 5 5 5 5 6 6 7 7 7 8 8
Wind_Speed
2 8 9 10 8 5 4 5 6 7 7 8 9 9 9 10 10 11 11 11 12 12 12 13 13 13 13 13 13 13 13 14 14 14 14 13 13 13 13 11 11 14 15
4 6 7 8 6 6 4 4 5 6 7 7 8 8 8 9 10 10 10 11 11 12 12 13 13 13 13 13 12 13 13 13 13 12 11 12 13 12 12 12 12 13 14
5 5 5 7 6 5 5 5 4 5 6 6 7 7 8 8 8 9 10 10 11 11 12 12 12 12 12 12 12 12 12 12 11 8 7 9 11 12 12 13 13 14 14
5 5 5 7 6 5 5 6 5 5 5 6 6 6 7 7 8 9 10 10 11 11 11 11 11 11 11 11 11 11 11 10 8 5 7 9 10 12 11 12 13 13 14
5 5 6 7 7 6 5 5 5 6 5 5 5 6 6 6 7 9 9 10 10 10 10 10 11 10 10 10 10 10 9 8 6 6 7 8 9 10 10 11 12 12 13
5 6 6 7 7 8 6 5 5 5 6 5 5 6 6 7 7 8 9 9 9 10 10 9 10 10 10 9 9 9 8 6 5 6 6 7 8 9 9 10 11 11 11
4 6 6 8 7 8 7 6 6 6 5 5 5 6 6 7 8 8 8 8 8 9 9 9 9 9 9 8 8 8 7 5 5 6 6 7 8 9 9 9 10 10 10
3 5 6 7 8 8 8 5 5 6 6 5 5 5 6 7 7 8 8 7 8 8 8 8 8 8 8 8 8 7 6 4 4 5 6 6 8 8 8 9 9 9 9
4 5 5 5 6 7 8 7 5 5 5 5 5 5 5 6 7 7 7 7 7 7 7 7 7 7 7 7 7 6 5 3 3 4 4 5 7 7 7 7 8 9 9
4 4 5 5 5 5 5 6 5 4 4 5 5 5 5 6 6 6 6 6 6 7 7 6 6 6 6 6 6 6 4 2 4 3 3 5 6 6 6 6 7 8 8
4 4 4 4 5 4 4 5 6 4 4 4 4 4 4 3 4 4 5 5 6 6 6 6 5 5 5 5 5 4 2 2 3 3 3 4 5 5 5 6 6 7 8
3 3 4 4 4 4 4 3 3 2 2 2 2 2 1 2 2 3 5 5 5 5 5 5 5 4 3 3 3 1 1 2 2 2 3 4 3 4 4 5 5 6 6
3 3 3 4 4 4 3 3 2 2 1 1 1 1 1 1 2 2 3 3 3 4 3 3 3 2 1 2 1 1 1 1 1 2 3 2 2 2 3 4 5 5 6
2 3 3 3 3 3 3 2 2 2 2 1 1 1 1 1 1 1 1 2 2 2 1 1 1 0 1 1 1 0 1 0 1 1 1 2 1 1 2 3 4 5 6
3 3 3 4 3 2 2 2 2 2 2 1 1 0 0 0 0 0 1 1 2 2 1 1 1 1 0 0 0 0 0 0 1 1 2 1 0 0 1 3 5 5 6
3 3 3 2 3 2 1 1 2 1 2 1 0 1 1 0 0 1 1 1 1 2 2 2 2 1 1 1 1 1 1 1 2 2 2 2 1 1 1 3 5 6 5
4 3 3 2 2 2 2 1 1 1 1 1 1 1 1 1 1 1 1 1 1 2 2 2 2 2 1 1 2 2 2 2 2 3 3 3 3 3 2 3 4 6 6
4 3 3 2 2 3 3 2 1 1 1 1 1 1 2 1 1 1 1 1 2 2 3 2 2 2 2 2 2 2 2 2 3 3 4 4 4 4 4 3 4 5 5
4 3 3 3 3 3 3 3 2 1 1 1 2 1 2 2 2 2 2 2 2 2 3 3 3 3 3 2 2 3 3 3 4 4 4 4 4 4 4 4 5 5 4
4 3 3 3 3 3 3 3 2 1 1 2 2 2 2 2 3 2 2 2 2 2 3 4 4 3 3 3 3 3 4 4 4 4 4 4 5 5 5 5 5 6 6
4 3 3 3 3 3 2 3 2 2 2 2 2 3 3 3 3 3 2 2 2 3 3 4 4 4 3 2 2 3 4 5 5 4 4 4 5 5 5 5 5 6 6
4 3 3 3 3 3 3 3 3 3 3 3 3 3 3 3 3 3 3 3 3 3 4 4 4 4 3 3 3 2 3 4 4 4 4 4 5 5 5 6 6 6 5
3 3 3 4 4 4 4 2 2 3 3 3 4 4 4 4 4 4 5 4 4 4 4 5 5 6 5 5 4 3 3 4 3 4 5 4 4 4 4 5 6 6 6
4 3 3 3 3 3 3 2 3 3 4 5 4 4 5 5 5 5 6 6 5 4 5 5 5 5 6 6 5 5 5 3 3 3 4 5 5 5 5 4 5 6 7
3 3 3 3 3 3 3 3 4 4 5 4 4 5 5 5 6 6 6 6 6 5 6 6 6 6 6 7 6 5 5 5 6 5 6 5 5 5 5 6 6 6 7
3 2 3 3 3 3 3 3 4 5 5 5 6 6 5 5 6 7 7 7 7 6 6 7 7 8 7 8 8 7 6 6 6 6 7 7 7 6 6 6 6 6 6
Wind_Direction
346 338 337 340 354 8 39 66 75 73 81 84 83 81 78 75 74 73 71 70 70 70 72 75 75 74 73 74 76 78 78 76 75 74 74 75 77 78 77 75 82 82 80
333 336 344 346 1 17 42 68 82 78 86 88 87 85 82 77 76 74 72 72 73 73 73 72 72 72 73 75 76 77 79 78 76 74 78 82 79 80 80 77 73 82 85
353 356 354 2 11 24 42 61 85 84 91 93 92 91 87 80 78 78 75 73 73 75 74 72 70 70 72 75 76 77 77 76 74 70 80 85 85 83 82 83 83 84 86
5 8 10 16 18 29 42 56 70 83 93 96 94 92 89 83 83 81 77 76 75 76 75 73 73 70 72 73 75 78 77 73 68 64 78 79 84 86 86 88 86 85 85
18 18 21 21 23 27 40 53 63 72 83 98 97 95 91 86 87 83 80 77 76 76 76 76 74 72 71 73 74 78 77 73 64 70 77 78 83 88 90 90 89 87 87
29 25 30 25 28 28 38 51 60 70 71 83 97 96 92 90 88 83 81 78 78 77 77 77 75 73 71 72 75 75 75 68 77 76 77 80 84 89 92 93 93 90 90
30 25 34 32 30 27 34 52 61 64 68 72 85 96 94 89 88 86 82 80 80 79 76 77 77 74 71 72 74 73 67 53 71 76 78 80 85 91 92 93 95 95 94
32 26 34 34 32 30 29 45 64 64 62 65 77 90 100 96 93 90 86 83 84 83 79 78 79 75 71 71 73 71 63 58 80 79 80 82 84 94 93 93 97 96 96
35 31 32 31 29 28 28 36 57 67 66 63 72 76 87 100 101 94 89 89 88 85 80 78 78 76 73 71 71 65 58 45 78 81 82 84 90 96 96 95 95 98 97
37 31 26 25 25 23 27 35 39 64 69 66 67 65 79 99 112 104 97 89 89 87 82 79 79 80 75 73 71 64 59 88 84 82 84 89 96 102 104 101 99 97 99
22 20 16 16 19 18 19 39 35 49 71 78 75 68 90 105 122 124 102 95 91 91 88 82 79 84 84 84 74 66 71 97 90 84 79 80 96 108 108 108 107 104 98
349 359 2 5 11 13 13 25 31 34 79 93 95 95 102 111 103 121 114 106 102 98 98 87 86 100 109 107 101 104 96 88 99 98 83 76 95 111 115 117 116 113 110
319 335 348 355 3 9 5 4 11 16 15 69 83 98 98 105 100 104 131 126 122 121 112 106 118 107 94 93 114 98 55 80 101 107 96 81 105 124 128 135 132 129 123
310 327 336 347 350 357 354 358 355 10 2 14 17 62 99 73 77 106 140 161 166 166 150 164 168 139 103 118 143 136 70 72 138 118 106 73 82 150 152 156 151 142 140
297 312 322 339 333 340 346 346 350 355 347 325 336 342 240 120 137 128 200 187 196 193 192 211 213 199 189 162 202 264 270 302 224 185 166 127 120 317 193 182 170 155 156
283 295 309 318 333 333 329 330 337 335 326 323 310 322 289 239 202 260 244 227 216 216 216 224 230 231 232 231 238 257 273 267 251 222 208 189 184 253 254 216 186 176 170
281 283 298 305 321 327 303 296 314 318 300 323 292 256 255 267 240 243 255 243 234 228 216 223 224 229 232 232 238 248 262 260 252 243 222 216 213 216 242 244 207 192 188
289 288 288 301 304 313 309 276 276 281 274 290 279 248 245 251 251 248 248 260 253 237 219 219 225 227 226 233 239 245 252 254 252 248 227 224 229 224 222 232 225 206 199
283 277 288 283 287 296 294 277 253 254 267 265 266 263 254 244 238 250 251 254 254 244 234 219 220 229 232 238 244 249 255 253 249 244 234 233 235 235 231 224 217 210 208
285 276 286 295 297 295 288 273 248 239 270 261 263 261 254 254 248 248 259 253 250 250 236 223 218 226 231 235 246 257 260 255 249 239 239 237 233 237 235 228 219 211 208
293 287 287 294 303 307 291 270 258 248 259 255 263 257 248 257 262 262 259 257 255 243 244 236 224 220 225 226 247 265 261 250 248 241 237 238 230 232 235 231 226 222 210
285 290 292 293 294 296 290 274 260 263 252 254 261 256 248 252 259 260 261 251 253 250 246 241 227 219 226 219 238 249 257 244 239 244 243 244 242 232 235 236 233 230 221
281 286 285 291 295 296 290 281 271 254 252 253 256 255 255 254 255 256 259 253 245 243 238 241 236 225 221 226 227 232 243 247 264 235 237 240 244 243 245 246 244 241 234
279 284 283 286 290 288 285 276 261 257 260 263 261 260 260 256 255 254 255 253 246 243 239 238 240 239 224 221 229 243 253 262 249 250 232 237 248 250 250 246 246 247 240
280 287 285 284 291 292 287 280 270 266 263 268 265 260 255 252 250 248 249 249 247 245 245 241 241 240 232 225 226 232 238 242 242 250 254 250 251 246 249 254 250 243 239
282 287 286 280 286 287 287 279 270 272 274 272 272 262 255 252 248 247 246 247 247 247 246 248 243 239 238 236 228 227 230 233 236 243 253 252 255 257 252 249 249 242 235
Height
1542 1542 1542 1543 1543 1544 1544 1544 1544 1544 1544 1543 1543 1543 1543 1543 1543 1543 1543 1542 1542 1542 1542 1542 1541 1541 1540 1540 1540 1539 1539 1539 1538 1538 1538 1538 1538 1537 1537 1537 1537 1536 1536
1541 1542 1542 1543 1543 1544 1544 1544 1544 1544 1544 1544 1544 1544 1544 1544 1544 1544 1544 1543 1543 1543 1543 1543 1542 1542 1542 1541 1541 1541 1541 1540 1540 1540 1540 1539 1539 1539 1539 1538 1538 1538 1537
1541 1541 1542 1543 1543 1544 1544 1544 1544 1544 1544 1544 1544 1544 1544 1544 1544 1544 1544 1544 1544 1544 1543 1543 1543 1543 1543 1542 1542 1542 1542 1542 1542 1542 1542 1542 1541 1540 1540 1540 1540 1539 1539
1541 1541 1542 1542 1543 1543 1544 1544 1544 1544 1544 1545 1545 1544 1544 1544 1545 1545 1545 1544 1544 1544 1544 1544 1544 1544 1543 1543 1543 1543 1543 1543 1543 1543 1544 1543 1543 1542 1542 1542 1541 1541 1541
1541 1541 1541 1542 1543 1543 1543 1544 1544 1544 1544 1545 1545 1545 1545 1545 1545 1545 1545 1545 1545 1544 1544 1544 1544 1544 1544 1544 1544 1544 1544 1544 1544 1544 1544 1544 1544 1543 1543 1543 1543 1543 1543
1540 1541 1541 1542 1542 1542 1543 1543 1544 1544 1544 1544 1545 1545 1545 1545 1545 1545 1545 1545 1545 1545 1545 1544 1544 1544 1544 1544 1544 1544 1544 1545 1545 1545 1545 1545 1545 1545 1544 1544 1544 1544 1544
1540 1540 1540 1541 1542 1542 1542 1543 1543 1543 1544 1544 1544 1544 1545 1545 1545 1544 1544 1545 1545 1545 1545 1545 1544 1544 1544 1544 1544 1545 1545 1545 1546 1546 1546 1546 1546 1545 1545 1545 1545 1545 1545
1539 1540 1540 1540 1541 1541 1542 1542 1542 1543 1543 1543 1544 1544 1544 1544 1544 1544 1544 1544 1545 1544 1544 1544 1544 1544 1544 1544 1544 1545 1545 1545 1546 1546 1546 1546 1546 1546 1546 1546 1546 1546 1546
1539 1539 1539 1539 1540 1540 1541 1541 1542 1542 1542 1543 1543 1543 1544 1544 1544 1544 1544 1544 1544 1544 1544 1544 1544 1544 1544 1544 1544 1545 1545 1545 1546 1546 1546 1546 1546 1547 1547 1547 1547 1547 1547
1538 1538 1538 1539 1539 1539 1539 1540 1540 1541 1541 1542 1542 1543 1543 1543 1543 1543 1544 1544 1544 1544 1544 1544 1544 1543 1543 1544 1544 1545 1545 1545 1546 1546 1546 1546 1546 1547 1547 1547 1547 1547 1547
1537 1537 1537 1537 1538 1538 1538 1538 1539 1539 1540 1541 1541 1542 1542 1542 1543 1543 1543 1543 1543 1543 1543 1543 1543 1543 1543 1543 1544 1544 1545 1545 1545 1545 1546 1546 1546 1546 1547 1547 1547 1547 1547
1534 1535 1535 1536 1536 1536 1536 1537 1537 1538 1538 1539 1540 1541 1541 1541 1541 1542 1542 1542 1542 1542 1543 1543 1543 1543 1543 1543 1543 1543 1544 1545 1545 1545 1545 1545 1546 1546 1546 1547 1547 1547 1548
1533 1533 1533 1533 1534 1534 1534 1535 1535 1536 1537 1537 1538 1539 1539 1540 1540 1540 1541 1541 1541 1541 1542 1542 1542 1542 1542 1542 1542 1543 1543 1544 1544 1544 1544 1544 1545 1545 1546 1546 1547 1547 1547
1531 1531 1531 1531 1532 1532 1532 1532 1533 1533 1534 1535 1536 1537 1537 1538 1538 1539 1539 1540 1540 1540 1540 1541 1541 1541 1541 1541 1542 1542 1542 1542 1543 1543 1543 1544 1544 1545 1545 1546 1546 1547 1547
1529 1529 1529 1529 1529 1530 1530 1530 1531 1531 1532 1533 1534 1534 1535 1535 1536 1536 1537 1538 1538 1539 1539 1539 1540 1540 1540 1540 1540 1541 1541 1541 1542 1542 1542 1542 1543 1544 1544 1545 1545 1546 1546
1527 1527 1527 1527 1527 1527 1528 1528 1528 1529 1529 1530 1531 1532 1533 1533 1534 1534 1535 1535 1536 1537 1537 1538 1538 1538 1539 1539 1539 1539 1539 1540 1540 1540 1541 1541 1541 1542 1543 1543 1544 1544 1545
1524 1525 1525 1524 1525 1525 1525 1525 1526 1526 1527 1528 1529 1530 1531 1531 1532 1532 1533 1533 1534 1535 1535 1536 1536 1537 1537 1537 1537 1537 1538 1538 1538 1539 1539 1539 1540 1540 1541 1542 1542 1543 1544
1522 1522 1522 1522 1522 1522 1523 1523 1523 1524 1524 1525 1525 1526 1527 1528 1529 1530 1530 1530 1531 1532 1533 1533 1534 1534 1535 1535 1535 1535 1536 1536 1536 1537 1537 1537 1538 1539 1539 1540 1541 1541 1542
1519 1519 1519 1519 1519 1519 1520 1520 1520 1521 1521 1522 1522 1523 1524 1525 1526 1527 1527 1527 1528 1529 1530 1531 1531 1532 1532 1533 1533 1533 1533 1533 1534 1534 1535 1535 1536 1536 1537 1538 1538 1539 1540
1516 1516 1516 1517 1516 1516 1517 1517 1517 1517 1518 1519 1519 1519 1520 1521 1522 1523 1524 1524 1525 1525 1526 1527 1528 1529 1530 1530 1531 1531 1531 1531 1531 1531 1532 1533 1533 1534 1535 1535 1536 1537 1538
1513 1513 1513 1513 1513 1513 1513 1513 1513 1513 1514 1515 1515 1516 1517 1518 1518 1519 1520 1521 1521 1522 1522 1524 1525 1526 1527 1528 1528 1528 1528 1528 1528 1528 1529 1530 1530 1531 1532 1533 1533 1534 1535
1510 1509 1510 1510 1510 1510 1510 1510 1510 1510 1511 1511 1512 1512 1513 1514 1514 1515 1516 1516 1517 1518 1519 1520 1521 1522 1523 1525 1526 1526 1526 1527 1525 1525 1525 1526 1527 1528 1529 1530 1530 1531 1532
1507 1507 1507 1507 1507 1507 1507 1507 1507 1507 1507 1508 1508 1508 1509 1509 1510 1511 1511 1512 1513 1514 1514 1515 1517 1518 1519 1521 1522 1524 1524 1523 1522 1522 1522 1522 1523 1524 1525 1526 1527 1527 1528
1504 1504 1504 1504 1504 1504 1504 1503 1503 1502 1502 1503 1504 1503 1504 1505 1506 1507 1507 1508 1508 1509 1510 1511 1512 1513 1515 1516 1518 1519 1520 1520 1521 1519 1518 1519 1519 1520 1521 1522 1523 1524 1525
1502 1502 1502 1502 1501 1501 1501 1500 1500 1499 1499 1499 1499 1499 1500 1500 1501 1502 1503 1503 1504 1504 1505 1506 1508 1509 1509 1511 1512 1514 1515 1516 1516 1516 1515 1515 1515 1516 1516 1517 1519 1520 1521
1499 1499 1499 1499 1499 1498 1498 1497 1496 1496 1495 1495 1495 1495 1495 1496 1496 1497 1497 1498 1498 1499 1500 1501 1502 1504 1504 1506 1507 1508 1509 1511 1512 1512 1512 1511 1511 1511 1512 1513 1514 1515 1516